Location: Aldenham
(51.6667°N, 0.3500°W)
Time: 00:44:50
(UTC+00:00)

A-11 Canister half - Pass Details

Date: 16 February 2026
Orbit: 1512 x 1687 km, 47.2° (Epoch: 8 March)

Event Time Altitude Azimuth Distance (km) Brightness Sun altitude
Rises 03:47:19 0° 287° (WNW) 4,862 - -32.2°
Reaches altitude 10° 03:50:51 10° 278° (W) 3,848 - -31.7°
Maximum altitude 03:59:12 34° 219° (SW) 2,390 - -30.5°
Exits shadow 04:02:07 29° 188° (S) 2,590 9.9 -30.0°
Drops below altitude 10° 04:07:18 10° 159° (SSE) 3,719 11.0 -29.3°
Sets 04:10:40 0° 151° (SSE) 4,680 11.7 -28.8°
